Starlink 30198

operational
NORAD ID: 57290 Int'l Des: 2023-096 Owner: SPXS Country: US Constellation: starlink
LEOCIRCULAR

关于 Starlink 30198

正在加载描述...

实时位置

正在加载3D地球...

即将过境

高度历史

Altitude vs Time

uPlot chart will show altitude changes over time

两行轨道根数

1 57290U 23096A 25354.18684191 .00000058 00000-0 19376-4 0 9993
2 57290 43.0027 295.5473 0001026 268.7366 91.3359 15.02534972135651
Epoch: Dec 20, 2025 • Age: 7 hours

当前状态

高度 563.0 km
速度 7.59 km/s
星下点 43.12°N, 128.52°E
发射日期 Jul 10, 2023
运行时间 2.4 years
类型 internet

技术详情

分类 Payload
质量 730.00 kg
干质量 700.00 kg
总质量 730.00 kg
长度 0.30 m
直径 4.10 m
跨度 29.00 m
形状 Box + pan
制造商 SPXS
平台类型 Starlink V2M
阶段状态 In Orbit
所有者/国家 SPXS/US

大型星座

Loading constellations...